sat.trackr.live / text

‹ back to catalog

DISKSAT A

NORAD 67222 · 2025-305D

PAYLOAD ACTIVE UNKNOWN

§ Identity

Operator
Country
US
Launch date
2025-12-18
Launch site
WLPIS
Launch vehicle
Mass (kg)
RCS (m²)

External: N2YO · Heavens-Above · Gunter

§ Orbital elements

Epoch: 2026-09-20T18:53:24.213120Z

Period
95.33 min
Inclination
45.0028°
Eccentricity
0.0006506
Mean motion
15.10485723 rev/d
Perigee alt
530.2 km
Apogee alt
539.2 km
Semi-major
6,912.9 km
B*
2.7805e-4
RAAN
295.1793°
Arg perigee
339.6885°
Mean anomaly
20.3732°
Rev number
4,176

§ Raw data

DISKSAT A1 67222U 25305D   26263.78708580  .00004407  00000+0  27805-3 0  99952 67222  45.0028 295.1793 0006506 339.6885  20.3732 15.10485723 41766

JSON: /api/v1/satellites/67222 · /tle

For live sub-satellite position, see the globe view (requires WebGL).

§ Visibility from observer

Set your observer location to see the next 7 days of passes ≥ 10°. The values pass through the URL so the page stays shareable.

No JS? Fill the form by hand. The geolocation button needs JavaScript.